FLOCK 1E-8

Last updated on June 22, 2016, 5:36 p.m. UTC

1 40727U 98067GK  16174.51699118  .13529802  12497-4  99088-3 0  9993
2 40727  51.6085 344.8259 0014402 298.1778  62.3735 16.39485529 54024

Satellite is not in orbit.